• Em Portugal
  • Lista de países
  • Para 7 dias
  • Temperatura da água
  • Mapas de satélite
  • Mapa do tempo
  • Widgets de tempo
  • user-avatar
    Iniciar Sessão

    Previsão horária em Broda

    Hoje, 19 Agosto, Domingo

    Tempo Temperatura Precipitação Vento Pressão Humidade
    00:00 +18°C° 0 mm 1 m/s 752 mmHg 77%
    01:00 +17°C° 0 mm 2 m/s 752 mmHg 82%
    02:00 +17°C° 0 mm 2 m/s 752 mmHg 84%
    03:00 +18°C° 0 mm 1 m/s 752 mmHg 86%
    04:00 +16°C° 0 mm 1 m/s 752 mmHg 88%
    05:00 +18°C° 0 mm 2 m/s 752 mmHg 83%
    06:00 +19°C° 0 mm 2 m/s 752 mmHg 78%
    07:00 +20°C° 0 mm 2 m/s 752 mmHg 73%
    08:00 +23°C° 0 mm 2 m/s 752 mmHg 64%
    09:00 +24°C° 0 mm 3 m/s 752 mmHg 54%
    10:00 +26°C° 0 mm 3 m/s 752 mmHg 45%
    11:00 +26°C° 0 mm 3 m/s 752 mmHg 44%
    12:00 +27°C° 0 mm 3 m/s 752 mmHg 42%
    13:00 +28°C° 0 mm 3 m/s 752 mmHg 41%
    14:00 +28°C° 0 mm 3 m/s 752 mmHg 42%
    15:00 +28°C° 0 mm 2 m/s 751 mmHg 43%
    16:00 +28°C° 0 mm 2 m/s 751 mmHg 44%
    17:00 +26°C° 0 mm 2 m/s 751 mmHg 50%
    18:00 +24°C° 0 mm 1 m/s 751 mmHg 57%
    19:00 +23°C° 0 mm 1 m/s 750 mmHg 63%
    20:00 +22°C° 0 mm 1 m/s 750 mmHg 66%
    21:00 +21°C° 0 mm 1 m/s 750 mmHg 69%
    22:00 +20°C° 0 mm 1 m/s 750 mmHg 72%
    23:00 +20°C° 0 mm 1 m/s 749 mmHg 71%

    Amanhã, 20 Agosto, Segunda-feira

    Tempo Temperatura Precipitação Vento Pressão Humidade
    00:00 +19°C° 0 mm 2 m/s 749 mmHg 69%
    01:00 +19°C° 0 mm 2 m/s 749 mmHg 68%
    02:00 +19°C° 0 mm 2 m/s 748 mmHg 66%
    03:00 +19°C° 0 mm 2 m/s 748 mmHg 64%
    04:00 +19°C° 0 mm 3 m/s 748 mmHg 62%
    05:00 +19°C° 0 mm 3 m/s 748 mmHg 61%
    06:00 +20°C° 0 mm 3 m/s 747 mmHg 60%
    07:00 +21°C° 0 mm 4 m/s 747 mmHg 60%
    08:00 +22°C° 0 mm 4 m/s 747 mmHg 58%
    09:00 +25°C° 0 mm 5 m/s 747 mmHg 57%
    10:00 +26°C° 0 mm 5 m/s 747 mmHg 55%
    11:00 +26°C° 0,1 mm 5 m/s 747 mmHg 57%
    12:00 +24°C° 0,1 mm 6 m/s 747 mmHg 59%
    13:00 +24°C° 0,1 mm 6 m/s 747 mmHg 61%
    14:00 +23°C° 0,1 mm 5 m/s 747 mmHg 65%
    15:00 +23°C° 0,1 mm 5 m/s 747 mmHg 68%
    16:00 +22°C° 0,1 mm 5 m/s 747 mmHg 72%
    17:00 +21°C° 0,1 mm 5 m/s 747 mmHg 74%
    18:00 +21°C° 0,1 mm 5 m/s 747 mmHg 77%
    19:00 +20°C° 0,1 mm 4 m/s 747 mmHg 80%
    20:00 +19°C° 0 mm 4 m/s 747 mmHg 79%
    21:00 +18°C° 0 mm 4 m/s 748 mmHg 79%
    22:00 +17°C° 0 mm 4 m/s 748 mmHg 79%
    23:00 +17°C° 0 mm 4 m/s 748 mmHg 78%

    Depois de amanhã, 21 Agosto, Terça-feira

    Tempo Temperatura Precipitação Vento Pressão Humidade
    00:00 +15°C° 0 mm 4 m/s 748 mmHg 77%
    01:00 +15°C° 0 mm 4 m/s 748 mmHg 76%
    02:00 +14°C° 0 mm 4 m/s 749 mmHg 76%
    03:00 +14°C° 0 mm 4 m/s 749 mmHg 77%
    04:00 +14°C° 0 mm 3 m/s 749 mmHg 78%
    05:00 +15°C° 0 mm 4 m/s 750 mmHg 75%
    06:00 +17°C° 0 mm 4 m/s 750 mmHg 71%
    07:00 +18°C° 0 mm 4 m/s 751 mmHg 68%
    08:00 +19°C° 0 mm 4 m/s 751 mmHg 62%
    09:00 +20°C° 0 mm 4 m/s 752 mmHg 56%
    10:00 +21°C° 0 mm 4 m/s 752 mmHg 50%
    11:00 +22°C° 0 mm 4 m/s 752 mmHg 47%
    12:00 +22°C° 0 mm 4 m/s 752 mmHg 45%
    13:00 +23°C° 0 mm 4 m/s 752 mmHg 42%
    14:00 +23°C° 0 mm 4 m/s 752 mmHg 42%
    15:00 +24°C° 0 mm 3 m/s 752 mmHg 43%
    16:00 +22°C° 0 mm 3 m/s 753 mmHg 44%
    17:00 +21°C° 0 mm 3 m/s 753 mmHg 51%
    18:00 +19°C° 0 mm 2 m/s 753 mmHg 58%
    19:00 +18°C° 0 mm 2 m/s 753 mmHg 64%
    20:00 +17°C° 0 mm 2 m/s 753 mmHg 70%
    21:00 +16°C° 0 mm 2 m/s 753 mmHg 75%
    22:00 +15°C° 0 mm 1 m/s 754 mmHg 80%
    23:00 +14°C° 0 mm 1 m/s 754 mmHg 83%

    22 Agosto, Quarta-feira

    Tempo Temperatura Precipitação Vento Pressão Humidade
    00:00 +14°C° 0 mm 1 m/s 754 mmHg 85%
    01:00 +14°C° 0 mm 1 m/s 754 mmHg 88%
    02:00 +13°C° 0 mm 1 m/s 754 mmHg 89%
    03:00 +13°C° 0 mm 1 m/s 754 mmHg 90%
    04:00 +13°C° 0 mm 2 m/s 754 mmHg 91%
    05:00 +14°C° 0 mm 2 m/s 754 mmHg 85%
    06:00 +15°C° 0 mm 2 m/s 754 mmHg 80%
    07:00 +16°C° 0 mm 2 m/s 754 mmHg 74%
    08:00 +18°C° 0 mm 3 m/s 754 mmHg 67%
    09:00 +20°C° 0 mm 3 m/s 754 mmHg 60%
    10:00 +22°C° 0 mm 3 m/s 754 mmHg 53%
    11:00 +24°C° 0 mm 3 m/s 754 mmHg 49%
    12:00 +25°C° 0 mm 3 m/s 753 mmHg 45%
    13:00 +26°C° 0 mm 3 m/s 753 mmHg 42%
    14:00 +26°C° 0 mm 3 m/s 753 mmHg 41%
    15:00 +26°C° 0 mm 3 m/s 752 mmHg 41%
    16:00 +27°C° 0 mm 3 m/s 752 mmHg 41%
    17:00 +25°C° 0 mm 3 m/s 751 mmHg 46%
    18:00 +23°C° 0 mm 2 m/s 751 mmHg 52%
    19:00 +21°C° 0 mm 2 m/s 751 mmHg 57%
    20:00 +20°C° 0 mm 2 m/s 751 mmHg 59%
    21:00 +19°C° 0 mm 3 m/s 751 mmHg 60%
    22:00 +19°C° 0 mm 3 m/s 751 mmHg 62%
    23:00 +18°C° 0 mm 3 m/s 750 mmHg 61%

    23 Agosto, Quinta-feira

    Tempo Temperatura Precipitação Vento Pressão Humidade
    00:00 +18°C° 0 mm 3 m/s 750 mmHg 60%
    01:00 +18°C° 0 mm 3 m/s 750 mmHg 59%
    02:00 +18°C° 0 mm 3 m/s 750 mmHg 59%
    03:00 +18°C° 0 mm 3 m/s 749 mmHg 58%
    04:00 +18°C° 0 mm 3 m/s 749 mmHg 58%
    05:00 +19°C° 0 mm 3 m/s 749 mmHg 60%
    06:00 +19°C° 0 mm 3 m/s 749 mmHg 63%
    07:00 +19°C° 0 mm 3 m/s 749 mmHg 65%
    08:00 +20°C° 0,1 mm 3 m/s 749 mmHg 65%
    09:00 +20°C° 0,1 mm 3 m/s 749 mmHg 66%
    10:00 +21°C° 0,1 mm 3 m/s 749 mmHg 66%
    11:00 +24°C° 0 mm 3 m/s 748 mmHg 61%
    12:00 +25°C° 0 mm 3 m/s 748 mmHg 56%
    13:00 +27°C° 0 mm 3 m/s 748 mmHg 51%
    14:00 +27°C° 0 mm 3 m/s 748 mmHg 51%
    15:00 +27°C° 0 mm 2 m/s 747 mmHg 51%
    16:00 +28°C° 0 mm 2 m/s 747 mmHg 50%
    17:00 +26°C° 0 mm 2 m/s 747 mmHg 55%
    18:00 +25°C° 0 mm 2 m/s 746 mmHg 59%
    19:00 +24°C° 0 mm 2 m/s 746 mmHg 63%
    20:00 +24°C° 0 mm 2 m/s 746 mmHg 64%
    21:00 +23°C° 0 mm 2 m/s 746 mmHg 65%
    22:00 +23°C° 0 mm 2 m/s 745 mmHg 67%
    23:00 +22°C° 0 mm 3 m/s 745 mmHg 65%

    24 Agosto, Sexta-feira

    Tempo Temperatura Precipitação Vento Pressão Humidade
    00:00 +22°C° 0 mm 3 m/s 745 mmHg 63%
    01:00 +22°C° 0 mm 3 m/s 744 mmHg 62%
    02:00 +21°C° 0 mm 3 m/s 744 mmHg 64%
    03:00 +20°C° 0 mm 3 m/s 744 mmHg 66%
    04:00 +20°C° 0 mm 2 m/s 743 mmHg 69%
    05:00 +20°C° 0,1 mm 3 m/s 743 mmHg 70%
    06:00 +21°C° 0,1 mm 3 m/s 743 mmHg 72%
    07:00 +21°C° 0,1 mm 3 m/s 743 mmHg 73%
    08:00 +24°C° 0 mm 3 m/s 742 mmHg 69%
    09:00 +26°C° 0 mm 3 m/s 742 mmHg 65%
    10:00 +27°C° 0 mm 3 m/s 742 mmHg 61%
    11:00 +28°C° 0,7 mm 3 m/s 742 mmHg 58%
    12:00 +29°C° 0,7 mm 3 m/s 742 mmHg 55%
    13:00 +30°C° 0,7 mm 4 m/s 741 mmHg 53%
    14:00 +30°C° 0,1 mm 4 m/s 741 mmHg 51%
    15:00 +30°C° 0,1 mm 3 m/s 741 mmHg 50%
    16:00 +30°C° 0,1 mm 3 m/s 741 mmHg 49%
    17:00 +28°C° 0,2 mm 3 m/s 741 mmHg 55%
    18:00 +27°C° 0,2 mm 2 m/s 741 mmHg 61%
    19:00 +25°C° 0,2 mm 2 m/s 741 mmHg 67%
    20:00 +24°C° 0,5 mm 2 m/s 741 mmHg 73%
    21:00 +22°C° 0,5 mm 3 m/s 741 mmHg 78%
    22:00 +21°C° 0,5 mm 3 m/s 741 mmHg 84%
    23:00 +20°C° 0,3 mm 3 m/s 741 mmHg 87%
    Mostrar mais